Torna al catalogo

USA 316

AttivoNavigazioneVLEO
NORAD 48846·PAYLOAD·🇺🇸 United States

Lanciato Jun 15, 2021 da Wallops Flight Facility

Loading…

Prossimi Passaggi (prossime 24 ore)

TLE

ObsoletoSource: Mike McCants

Epoca: Aug 7, 2026, 23:18 UTC

1 48846U 21052A   26219.97105931 0.00003993  00000-0  23593-3 0    07
2 48846  54.9810 218.9230 0011533  32.4949 327.6582 15.10987501    08

Traccia USA 316 in tempo reale con AllMySat

Download on the App Store